Regional Weather Roundup
Issued by NWS Sioux Falls, SD

Home | Current Version | Previous Version | Graphics & Text | Print | Product List | Glossary Off
Versions: 1 2 3 4 5 6 7 8 9 10 11 12 13 14 15 16 17 18 19 20 21 22 23 24 25 26 27 28 29 30 31 32 33 34 35 36 37 38 39 40 41 42 43 44 45 46 47 48 49 50

532
ASUS43 KFSD 281002
RWRFSD

WEATHER ROUNDUP FOR SE SOUTH DAKOTA/SW MINNESOTA/NW IOWA
NATIONAL WEATHER SERVICE SIOUX FALLS SD
500 AM CDT WED JUN 28 2017

NOTE: "FAIR" INDICATES FEW OR NO CLOUDS BELOW 12,000 FEET WITH NO
SIGNIFICANT WEATHER AND OR OBSTRUCTIONS TO VISIBILITY.


SDZ038>040-050-052>070-281100-
SOUTHEAST SOUTH DAKOTA

CITY           SKY/WX    TMP DP  RH WIND       PRES   REMARKS
BROOKINGS      CLOUDY    64  61  90 S12       29.55R
CHAMBERLAIN    PTCLDY    71  56  58 W8        29.60R
HURON          CLOUDY    71  54  54 SW12      29.49F
MADISON        FAIR      64  64 100 SW17      29.55S
MITCHELL       CLOUDY    70  59  68 SW14      29.55R
SIOUX FALLS    CLOUDY    65  63  93 CALM      29.59R
WINNER         FAIR      70  53  54 SW10      29.64R
YANKTON        MOCLDY    68  65  90 SW7       29.62R
$$

MNZ071-072-080-081-089-090-097-098-281100-
SOUTHWEST MINNESOTA

CITY           SKY/WX    TMP DP  RH WIND       PRES   REMARKS
FAIRMONT       CLOUDY    67  65  93 S18G24    29.61S
JACKSON        RAIN      64  64 100 SW17G23   29.61R
LUVERNE        CLOUDY    63  61  94 S10       29.60R
MARSHALL       LGT RAIN  66  61  84 S20G28    29.49F
MONTEVIDEO     CLOUDY    64  61  88 S12G20    29.52R
PIPESTONE      CLOUDY    64  63  94 S13       29.56F
REDWOOD FALLS  LGT RAIN  65  60  84 S13       29.55F
TRACY          LGT RAIN  65  61  86 SE15      29.51F
WINDOM         CLOUDY    64  63  94 SE6       29.59R
WORTHINGTON    CLOUDY    63  61  93 S15       29.58F
$$

IAZ001>003-012>014-020>022-031-032-NEZ013-014-SDZ071-281100-
NORTHWEST IOWA

CITY           SKY/WX    TMP DP  RH WIND       PRES   REMARKS
DENISON        CLOUDY    66  64  94 S8G15     29.72F
ESTHERVILLE    CLOUDY    68  67  96 S18G30    29.63R
LE MARS        CLOUDY    66  64  94 S16G25    29.69R
ORANGE CITY    LGT RAIN  66  64  94 S16       29.65R
SHELDON        CLOUDY    64  61  88 S9        29.60F
SIOUX CITY     CLOUDY    67  65  93 S12G20    29.68R
SPENCER        LGT RAIN  69  66  90 S15       29.64R
STORM LAKE     RAIN      64  63  94 S18G28    29.66F
$$

ABBREVIATIONS USED IN REMARKS
   TC - TEMPERATURE IN CELSIUS
  WCI - WIND CHILL INDEX
   HX - HEAT INDEX
  VSB - VISIBILITY





USA.gov is the U.S. government's official web portal to all federal, state and local government web resources and services.